Location: Launois
(49.6535°N, 4.5395°E)
Time: 10:54:41
(UTC+00:00)

Lacrosse 5 rocket - Pass Details

Date: 23 May 2024
Orbit: 446 x 572 km, 57.0° (Epoch: 14 June)

Event Time Altitude Azimuth Distance (km) Brightness Sun altitude
Rises 02:58:15 0° 293° (WNW) 2,703 4.6 -7.0°
Reaches altitude 10° 03:01:29 10° 266° (W) 1,776 3.5 -6.6°
Maximum altitude 03:03:26 13° 237° (WSW) 1,554 3.0 -6.4°
Drops below altitude 10° 03:05:20 10° 207° (SSW) 1,730 3.3 -6.1°
Sets 03:08:25 0° 180° (S) 2,576 4.3 -5.8°
